Location: Chevoux
(46.3801°N, 4.9476°E)
Time: 21:15:48
(UTC+00:00)

Cosmos 1943 Rocket - Pass Details

Date: 28 January 2021
Orbit: 810 x 845 km, 71.0° (Epoch: 04 March)

Event Time Altitude Azimuth Distance (km) Brightness Sun altitude
Rises 19:20:09 0° 189° (S) 3,333 5.4 -27.8°
Reaches altitude 10° 19:22:36 10° 184° (S) 2,410 4.6 -28.2°
Enters shadow 19:23:26 14° 181° (S) 2,112 4.2 -28.4°
